Weather History for KGAG - April, 2013

Change the Weather History Date:

Saturday, April 6, 2013

  Actual Average Record
Temperature  
Mean Temperature 63 °F -  
Max Temperature 79 °F 71 °F 97 °F (1954)
Min Temperature 48 °F 39 °F 20 °F (1971)
Degree Days  
Heating Degree Days 2    
Growing Degree Days 13 (Base 50)    
Moisture  
Dew Point 39 °F    
Average Humidity 47    
Maximum Humidity 80    
Minimum Humidity 19    
Precipitation  
Precipitation 0.00 in - - ()
Sea Level Pressure  
Sea Level Pressure 29.78 in    
Wind  
Wind Speed 19 mph (ENE)    
Max Wind Speed 34 mph    
Max Gust Speed 45 mph    
Visibility 10 miles    
Events      
Averages and records for this station are not official NWS values.
T = Trace of Precipitation, MM = Missing Value Source: NWS Daily Summary

Daily Weather History Graph

Daily Weather History Graph

Search for Another Location

Airport or City:

Trip Planner

Search our weather history database for the weather conditions in past years. The results will help you decide how hot, cold, wet, or windy it might be!

Date:

Astronomy

Apr. 06, 2013 Rise Set
Actual Time 7:17 AM CDT 8:05 PM CDT
Civil Twilight 6:51 AM CDT 8:31 PM CDT
Nautical Twilight 6:20 AM CDT 9:02 PM CDT
Astronomical Twilight 5:49 AM CDT 9:34 PM CDT
Moon 4:56 AM CDT (4/6) 4:41 PM CDT (4/6)
Length of Visible Light 13h 40m
Length of Day
12h 47m
Waning Crescent, 15% of the Moon is Illuminated
Apr 6
Waning Crescent
Apr 10
New
Apr 18
First Quarter
Apr 25
Full
May 2
Last Quarter

Hourly Weather History & Observations

Time (CDT) Temp. Dew Point Humidity Pressure Visibility Wind Dir Wind Speed Gust Speed Precip Events Conditions
12:53 AM 57.9 °F 43.0 °F 58% 29.72 in 10.0 mi South 34.5 mph 40.3 mph N/A   Clear
1:53 AM 57.9 °F 43.0 °F 58% 29.70 in 10.0 mi South 34.5 mph 44.9 mph N/A   Clear
2:53 AM 55.9 °F 44.1 °F 64% 29.68 in 10.0 mi South 32.2 mph 41.4 mph N/A   Clear
3:53 AM 54.0 °F 44.1 °F 69% 29.69 in 10.0 mi South 15.0 mph 29.9 mph N/A   Clear
4:53 AM 53.1 °F 44.1 °F 71% 29.71 in 10.0 mi West 11.5 mph - N/A   Clear
5:53 AM 52.0 °F 44.1 °F 74% 29.72 in 10.0 mi SSW 12.7 mph - N/A   Clear
6:53 AM 48.9 °F 43.0 °F 80% 29.75 in 10.0 mi SW 8.1 mph - N/A   Clear
7:53 AM 50.0 °F 43.0 °F 77% 29.78 in 10.0 mi WSW 9.2 mph - N/A   Clear
8:53 AM 55.0 °F 43.0 °F 64% 29.80 in 10.0 mi WSW 8.1 mph - N/A   Clear
9:53 AM 64.9 °F 39.0 °F 39% 29.80 in 10.0 mi North 16.1 mph 24.2 mph N/A   Clear
10:53 AM 68.0 °F 39.9 °F 36% 29.81 in 10.0 mi North 20.7 mph 28.8 mph N/A   Clear
11:53 AM 71.1 °F 37.9 °F 30% 29.81 in 10.0 mi NNE 19.6 mph 29.9 mph N/A   Clear
12:53 PM 73.0 °F 36.0 °F 26% 29.81 in 10.0 mi North 15.0 mph 24.2 mph N/A   Clear
1:53 PM 75.9 °F 36.0 °F 23% 29.81 in 10.0 mi North 11.5 mph 18.4 mph N/A   Clear
2:53 PM 77.0 °F 35.1 °F 22% 29.78 in 10.0 mi NNE 13.8 mph - N/A   Clear
3:53 PM 78.1 °F 32.0 °F 19% 29.77 in 10.0 mi NE 10.4 mph 18.4 mph N/A   Clear
4:53 PM 77.0 °F 32.0 °F 19% 29.77 in 10.0 mi NE 6.9 mph - N/A   Clear
5:53 PM 75.0 °F 32.0 °F 21% 29.78 in 10.0 mi ENE 4.6 mph - N/A   Clear
6:53 PM 72.0 °F 36.0 °F 27% 29.79 in 10.0 mi NNE 6.9 mph - N/A   Clear
7:53 PM 66.9 °F 37.9 °F 34% 29.81 in 10.0 mi NE 6.9 mph - N/A   Clear
8:53 PM 62.1 °F 37.0 °F 39% 29.82 in 10.0 mi East 5.8 mph - N/A   Clear
9:53 PM 55.9 °F 37.9 °F 51% 29.83 in 10.0 mi SE 5.8 mph - N/A   Clear
10:53 PM 53.1 °F 41.0 °F 64% 29.83 in 10.0 mi South 9.2 mph - N/A   Clear
11:53 PM 53.1 °F 45.0 °F 74% 29.83 in 10.0 mi South 8.1 mph - N/A   Clear